User: anonymous   Login
Location: Palomar Mountain Lodge
(33.3110°N, 116.8495°W)
Time: 01:23:38
(UTC-07:00)
Language:

SWIFT - Orbit

View from above orbital plane
View from above orbital plane
View from above satellite
View from above satellite

Ground track
Ground track

The orbit data is extracted from the following two-line orbital elements,

1 28485U 04047A   19109.37485078 +.00000804 +00000-0 +24651-4 0  9998
2 28485 020.5561 120.0158 0011526 081.3829 278.7910 15.04354174789373
Epoch (UTC): 19 April 2019 08:59:47
Eccentricity: 0.0011526
inclination: 20.5561°
perigee height: 545 km
apogee height: 561 km
right ascension of ascending node: 120.0158°
argument of perigee: 81.3829°
revolutions per day: 15.04354174
mean anomaly at epoch: 278.7910°
orbit number at epoch: 78937

The dashed part of the orbit path shows where the satellite is in the earth's shadow,  

DLR